Location: Unspecified
(52.4292°N, 19.3359°E)
Time: 00:40:45
(UTC+02:00)

Altair - Pass Details

Date: 23 May 2024
Orbit: 1502 x 1682 km, 47.2° (Epoch: 19 June)

Event Time Altitude Azimuth Distance (km) Brightness Sun altitude
Rises 18:02:23 0° 286° (WNW) 4,938 11.6 21.9°
Reaches altitude 10° 18:06:50 10° 270° (W) 3,947 11.8 21.2°
Maximum altitude 18:13:01 18° 232° (SW) 3,301 10.1 20.3°
Drops below altitude 10° 18:19:11 10° 193° (SSW) 3,902 9.7 19.4°
Sets 18:23:35 0° 176° (S) 4,861 10.0 18.7°
